Regional Weather Roundup
Issued by NWS

Home | Current Version | Previous Version | Text Only | Print | Product List | Glossary Off
Versions: 1 2 3 4 5 6 7 8 9 10 11 12 13 14 15 16 17 18 19 20 21 22 23 24 25 26 27 28 29 30 31 32 33 34 35 36 37 38 39 40 41 42 43 44 45 46 47 48 49 50

000
ASUS45 KSLC 261310
RWRUT

UTAH REGIONAL WEATHER ROUNDUP
NATIONAL WEATHER SERVICE SALT LAKE CITY UT
700 AM MDT THU MAY 26 2016

UTZ001>011-023>025-261400-

NORTHERN UTAH

CITY           SKY/WX    TMP DP  RH WIND       PRES   REMARKS
BRIGHAM CITY     N/A     43  39  87 CALM      30.01S
HILL AFB       CLEAR     46  39  77 E15       30.01R
LOGAN          PTCLDY    38  38 100 CALM      30.04S
OGDEN          CLEAR     47  41  80 SW5       30.01R
PROVO AIRPORT  PTCLDY    46  36  66 CALM      30.01R
SALT LAKE CITY PTCLDY    49  44  83 CALM      30.00R
VERNAL         CLOUDY    44  33  65 W6        30.00R
WENDOVER       CLOUDY    55  36  47 NW14      30.02R
HEBER CITY     CLEAR     36  32  87 CALM      30.04R
WEST JORDAN    CLEAR     48  43  81 CALM      30.02R

$$

UTZ012>022-026-027-261400-

SOUTHERN/CENTRAL UTAH

CITY           SKY/WX    TMP DP  RH WIND       PRES   REMARKS
BLANDING       CLEAR     46  19  35 NE3       30.02S
BRYCE CANYON   CLEAR     34  27  75 NW6       30.04S WCI  29
CEDAR CITY     CLEAR     42  31  64 W6        30.01R
DELTA          PTCLDY    41  39  93 S3        30.01S
HANKSVILLE     PTCLDY    55  28  35 NW7       29.91
MILFORD        PTCLDY    42  35  76 N8        30.01R
MOAB/CYNLANDS  PTSUNNY   57  28  33 W5        29.87R
PRICE          PTCLDY    48  28  46 S5        29.96R
ST GEORGE      SUNNY     57  27  30 S3        29.93R
KANAB          PTCLDY    46  30  53 CALM      30.01R

$$

REGIONAL REPORTS     COLORADO/ARIZONA

CITY           SKY/WX    TMP DP  RH WIND       PRES   REMARKS
CRAIG, CO      CLOUDY    37  33  85 CALM      30.05S
GRAND JUNCTION SUNNY     49  30  48 CALM      29.91S
RIFLE          SUNNY     41  31  67 SE6       29.98R
MONTROSE       SUNNY     50  23  34 SE9       29.97R
CORTEZ         CLOUDY    44  28  53 NE3       29.98R
PAGE, AZ       PTCLDY    60  26  27 S8        29.89R
GRAND CANYON   MOCLDY    44  28  53 W6        30.04R
KINGMAN        CLEAR     48  32  53 E5        29.96R
FLAGSTAFF      CLOUDY    42  27  55 SW5       30.06R

$$

REGIONAL REPORTS    NEVADA/IDAHO/WYOMING

CITY           SKY/WX    TMP DP  RH WIND       PRES   REMARKS
LAS VEGAS, NV  CLEAR     62  36  37 S3        29.88R
ELY            CLOUDY    38  36  92 S3        30.10R
ELKO           PTCLDY    38  36  92 E3        30.09S
POCATELLO, ID  CLEAR     40  38  93 CALM      30.05R
BURLEY         CLEAR     43  39  86 SW3       30.03R
EVANSTON, WY   SUNNY     36  33  89 CALM      30.08R
ROCK SPRINGS   CLOUDY    38  35  89 SW6       30.07S WCI  33
KEMMERER         N/A     36  32  87 N6        30.10R WCI  31

$$



USA.gov is the U.S. government's official web portal to all federal, state and local government web resources and services.